Time,TemperatureF,DewpointF,PressureIn,WindDirection,WindDirectionDegrees,WindSpeedMPH,WindSpeedGustMPH,Humidity,HourlyPrecipIn,Conditions,Clouds,dailyrainin,SoftwareType,DateUTC
2013-04-29 00:00:00,51.1,44.2,30.06,SE,135,0.0,0.0,77,0.00,,,0.00,WUHU21636XXSP,2013-04-28 22:00:00,
2013-04-29 00:05:00,50.9,44.3,30.06,SE,135,0.0,0.0,78,0.00,,,0.00,WUHU21636XXSP,2013-04-28 22:05:00,
2013-04-29 00:10:00,50.9,44.3,30.06,WNW,293,0.0,0.0,78,0.00,,,0.00,WUHU21636XXSP,2013-04-28 22:10:00,
2013-04-29 00:15:00,50.7,44.1,30.05,WNW,293,0.0,0.0,78,0.00,,,0.00,WUHU21636XXSP,2013-04-28 22:15:00,
2013-04-29 00:20:00,50.5,43.9,30.06,SE,135,0.4,0.4,78,0.00,,,0.00,WUHU21636XXSP,2013-04-28 22:20:00,
2013-04-29 00:25:00,50.4,43.9,30.06,SE,135,0.0,0.4,78,0.00,,,0.00,WUHU21636XXSP,2013-04-28 22:25:00,
2013-04-29 00:30:00,50.2,44.0,30.06,ESE,113,0.4,0.4,79,0.00,,,0.00,WUHU21636XXSP,2013-04-28 22:30:00,
2013-04-29 00:35:00,50.0,43.8,30.06,ESE,113,0.0,0.4,79,0.00,,,0.00,WUHU21636XXSP,2013-04-28 22:35:00,
2013-04-29 00:40:00,50.0,44.1,30.06,SE,135,0.0,0.4,80,0.00,,,0.00,WUHU21636XXSP,2013-04-28 22:40:00,
2013-04-29 00:45:00,50.0,44.1,30.06,ESE,113,0.0,0.0,80,0.00,,,0.00,WUHU21636XXSP,2013-04-28 22:45:00,
2013-04-29 00:50:00,50.0,44.1,30.06,ESE,113,0.0,0.0,80,0.00,,,0.00,WUHU21636XXSP,2013-04-28 22:50:00,
2013-04-29 00:55:00,50.0,44.1,30.06,ESE,113,0.0,0.0,80,0.00,,,0.00,WUHU21636XXSP,2013-04-28 22:55:00,
2013-04-29 01:00:00,50.2,44.6,30.06,SE,135,0.0,0.0,81,0.00,,,0.00,WUHU21636XXSP,2013-04-28 23:00:00,
2013-04-29 01:05:00,50.0,44.4,30.06,NNW,338,0.0,0.0,81,0.00,,,0.00,WUHU21636XXSP,2013-04-28 23:05:00,
2013-04-29 01:10:00,50.0,44.4,30.06,NNW,338,0.0,0.0,81,0.00,,,0.00,WUHU21636XXSP,2013-04-28 23:10:00,
2013-04-29 01:15:00,50.0,44.4,30.06,NW,315,0.0,0.0,81,0.00,,,0.00,WUHU21636XXSP,2013-04-28 23:15:00,
2013-04-29 01:20:00,50.0,44.4,30.06,NNW,338,0.0,0.0,81,0.00,,,0.00,WUHU21636XXSP,2013-04-28 23:20:00,
2013-04-29 01:25:00,50.0,44.4,30.06,ESE,113,0.0,0.0,81,0.00,,,0.00,WUHU21636XXSP,2013-04-28 23:25:00,
2013-04-29 01:30:00,49.8,44.2,30.06,ESE,113,0.0,0.0,81,0.00,,,0.00,WUHU21636XXSP,2013-04-28 23:30:00,
2013-04-29 01:35:00,49.8,44.5,30.06,NNE,23,0.0,0.0,82,0.00,,,0.00,WUHU21636XXSP,2013-04-28 23:35:00,
2013-04-29 01:40:00,49.8,44.5,30.06,NNE,23,0.0,0.0,82,0.00,,,0.00,WUHU21636XXSP,2013-04-28 23:40:00,
2013-04-29 01:45:00,49.8,44.5,30.06,NNE,23,0.0,0.0,82,0.00,,,0.00,WUHU21636XXSP,2013-04-28 23:45:00,
2013-04-29 01:50:00,49.8,44.5,30.06,NNE,23,0.0,0.0,82,0.00,,,0.00,WUHU21636XXSP,2013-04-28 23:50:00,
2013-04-29 01:55:00,49.8,44.5,30.06,East,90,0.0,0.0,82,0.00,,,0.00,WUHU21636XXSP,2013-04-28 23:55:00,
2013-04-29 02:00:00,49.8,44.5,30.06,East,90,0.0,0.0,82,0.00,,,0.00,WUHU21636XXSP,2013-04-29 00:00:00,
2013-04-29 02:05:00,49.8,44.5,30.06,East,90,0.0,0.0,82,0.00,,,0.00,WUHU21636XXSP,2013-04-29 00:05:00,
2013-04-29 02:10:00,49.8,44.5,30.06,ENE,68,0.0,0.0,82,0.00,,,0.00,WUHU21636XXSP,2013-04-29 00:10:00,
2013-04-29 02:15:00,49.8,44.5,30.06,NE,45,0.0,0.0,82,0.00,,,0.00,WUHU21636XXSP,2013-04-29 00:15:00,
2013-04-29 02:20:00,49.8,44.5,30.05,North,0,0.0,0.0,82,0.00,,,0.00,WUHU21636XXSP,2013-04-29 00:20:00,
2013-04-29 02:25:00,49.8,44.5,30.05,NW,315,0.0,0.0,82,0.00,,,0.00,WUHU21636XXSP,2013-04-29 00:25:00,
2013-04-29 02:30:00,49.8,44.5,30.05,West,270,0.0,0.0,82,0.00,,,0.00,WUHU21636XXSP,2013-04-29 00:30:00,
2013-04-29 02:35:00,49.8,44.5,30.05,SE,135,0.0,0.0,82,0.00,,,0.00,WUHU21636XXSP,2013-04-29 00:35:00,
2013-04-29 02:40:00,49.8,44.5,30.05,SSE,158,0.0,0.0,82,0.00,,,0.00,WUHU21636XXSP,2013-04-29 00:40:00,
2013-04-29 02:45:00,49.8,44.5,30.05,SW,225,0.0,0.0,82,0.00,,,0.00,WUHU21636XXSP,2013-04-29 00:45:00,
2013-04-29 02:50:00,49.8,44.5,30.05,WNW,293,0.0,0.0,82,0.00,,,0.00,WUHU21636XXSP,2013-04-29 00:50:00,
2013-04-29 02:55:00,49.8,44.5,30.04,ESE,113,0.0,0.0,82,0.00,,,0.00,WUHU21636XXSP,2013-04-29 00:55:00,
2013-04-29 03:00:00,49.8,44.5,30.04,ENE,68,0.0,0.0,82,0.00,,,0.00,WUHU21636XXSP,2013-04-29 01:00:00,
2013-04-29 03:05:00,49.8,44.5,30.04,ENE,68,0.0,0.0,82,0.00,,,0.00,WUHU21636XXSP,2013-04-29 01:05:00,
2013-04-29 03:10:00,49.8,44.5,30.04,NE,45,0.0,0.0,82,0.00,,,0.00,WUHU21636XXSP,2013-04-29 01:10:00,
2013-04-29 03:15:00,49.8,44.5,30.03,NNE,23,0.0,0.0,82,0.00,,,0.00,WUHU21636XXSP,2013-04-29 01:15:00,
2013-04-29 03:20:00,49.8,44.5,30.04,NNE,23,0.0,0.0,82,0.00,,,0.00,WUHU21636XXSP,2013-04-29 01:20:00,
2013-04-29 03:25:00,49.8,44.5,30.03,NNE,23,0.0,0.0,82,0.00,,,0.00,WUHU21636XXSP,2013-04-29 01:25:00,
2013-04-29 03:30:00,49.8,44.5,30.03,NNE,23,0.0,0.0,82,0.00,,,0.00,WUHU21636XXSP,2013-04-29 01:30:00,
2013-04-29 03:35:00,49.8,44.5,30.03,NNE,23,0.0,0.0,82,0.00,,,0.00,WUHU21636XXSP,2013-04-29 01:35:00,
2013-04-29 03:40:00,49.8,44.5,30.03,ESE,113,0.0,0.0,82,0.00,,,0.00,WUHU21636XXSP,2013-04-29 01:40:00,
2013-04-29 03:45:00,49.8,44.5,30.03,ESE,113,0.0,0.0,82,0.00,,,0.00,WUHU21636XXSP,2013-04-29 01:45:00,
2013-04-29 03:50:00,49.8,44.5,30.03,ESE,113,0.0,0.0,82,0.00,,,0.00,WUHU21636XXSP,2013-04-29 01:50:00,
2013-04-29 03:55:00,49.8,44.5,30.03,ESE,113,0.0,0.0,82,0.00,,,0.00,WUHU21636XXSP,2013-04-29 01:55:00,
2013-04-29 04:00:00,49.8,44.5,30.03,ESE,113,0.0,0.0,82,0.00,,,0.00,WUHU21636XXSP,2013-04-29 02:00:00,
2013-04-29 04:05:00,49.8,44.5,30.03,ESE,113,0.0,0.0,82,0.00,,,0.00,WUHU21636XXSP,2013-04-29 02:05:00,
2013-04-29 04:10:00,50.0,44.7,30.03,ESE,113,0.0,0.0,82,0.00,,,0.00,WUHU21636XXSP,2013-04-29 02:10:00,
2013-04-29 04:15:00,50.0,44.7,30.02,ESE,113,0.0,0.0,82,0.00,,,0.00,WUHU21636XXSP,2013-04-29 02:15:00,
2013-04-29 04:20:00,50.0,44.7,30.03,ESE,113,0.0,0.0,82,0.00,,,0.00,WUHU21636XXSP,2013-04-29 02:20:00,
2013-04-29 04:25:00,50.0,44.7,30.03,ESE,113,0.0,0.0,82,0.00,,,0.00,WUHU21636XXSP,2013-04-29 02:25:00,
2013-04-29 04:30:00,50.0,44.7,30.03,ESE,113,0.0,0.0,82,0.00,,,0.00,WUHU21636XXSP,2013-04-29 02:30:00,
2013-04-29 04:35:00,50.0,44.7,30.03,ESE,113,0.0,0.0,82,0.00,,,0.00,WUHU21636XXSP,2013-04-29 02:35:00,
2013-04-29 04:40:00,50.0,44.7,30.03,ESE,113,0.0,0.0,82,0.00,,,0.00,WUHU21636XXSP,2013-04-29 02:40:00,
2013-04-29 04:45:00,50.0,45.0,30.03,ESE,113,0.0,0.0,83,0.00,,,0.00,WUHU21636XXSP,2013-04-29 02:45:00,
2013-04-29 04:50:00,50.0,45.0,30.02,ESE,113,0.0,0.0,83,0.00,,,0.00,WUHU21636XXSP,2013-04-29 02:50:00,
2013-04-29 04:55:00,50.0,45.0,30.03,ESE,113,0.0,0.0,83,0.00,,,0.00,WUHU21636XXSP,2013-04-29 02:55:00,
2013-04-29 05:00:00,49.8,44.9,30.03,ESE,113,0.0,0.0,83,0.00,,,0.00,WUHU21636XXSP,2013-04-29 03:00:00,
2013-04-29 05:05:00,49.8,44.9,30.03,NNE,23,0.0,0.0,83,0.00,,,0.00,WUHU21636XXSP,2013-04-29 03:05:00,
2013-04-29 05:10:00,49.8,44.9,30.03,NE,45,0.0,0.0,83,0.00,,,0.00,WUHU21636XXSP,2013-04-29 03:10:00,
2013-04-29 05:15:00,49.8,44.9,30.03,ENE,68,0.0,0.0,83,0.00,,,0.00,WUHU21636XXSP,2013-04-29 03:15:00,
2013-04-29 05:20:00,49.8,44.9,30.03,ENE,68,0.0,0.0,83,0.00,,,0.00,WUHU21636XXSP,2013-04-29 03:20:00,
2013-04-29 05:25:00,49.8,44.9,30.03,ENE,68,0.0,0.0,83,0.00,,,0.00,WUHU21636XXSP,2013-04-29 03:25:00,
2013-04-29 05:30:00,49.8,44.9,30.03,ENE,68,0.0,0.0,83,0.00,,,0.00,WUHU21636XXSP,2013-04-29 03:30:00,
2013-04-29 05:35:00,49.8,44.9,30.03,NE,45,0.0,0.0,83,0.00,,,0.00,WUHU21636XXSP,2013-04-29 03:35:00,
2013-04-29 05:40:00,49.8,44.9,30.02,NE,45,0.0,0.0,83,0.00,,,0.00,WUHU21636XXSP,2013-04-29 03:40:00,
2013-04-29 05:45:00,49.8,44.9,30.02,NE,45,0.0,0.0,83,0.00,,,0.00,WUHU21636XXSP,2013-04-29 03:45:00,
2013-04-29 05:50:00,49.8,44.9,30.02,NE,45,0.0,0.0,83,0.00,,,0.00,WUHU21636XXSP,2013-04-29 03:50:00,
2013-04-29 05:55:00,49.8,44.9,30.02,NNE,23,0.0,0.0,83,0.00,,,0.00,WUHU21636XXSP,2013-04-29 03:55:00,
2013-04-29 06:00:00,49.8,44.9,30.02,NNE,23,0.0,0.0,83,0.00,,,0.00,WUHU21636XXSP,2013-04-29 04:00:00,
2013-04-29 06:05:00,49.8,45.2,30.03,WNW,293,0.0,0.0,84,0.00,,,0.00,WUHU21636XXSP,2013-04-29 04:05:00,
2013-04-29 06:10:00,49.6,45.0,30.03,WNW,293,0.0,0.0,84,0.00,,,0.00,WUHU21636XXSP,2013-04-29 04:10:00,
2013-04-29 06:15:00,49.6,45.0,30.03,WNW,293,0.0,0.0,84,0.00,,,0.00,WUHU21636XXSP,2013-04-29 04:15:00,
2013-04-29 06:20:00,49.6,45.0,30.03,WNW,293,0.0,0.0,84,0.00,,,0.00,WUHU21636XXSP,2013-04-29 04:20:00,
2013-04-29 06:25:00,49.6,45.3,30.03,WNW,293,0.0,0.0,85,0.00,,,0.00,WUHU21636XXSP,2013-04-29 04:25:00,
2013-04-29 06:30:00,49.6,45.3,30.04,WNW,293,0.0,0.0,85,0.00,,,0.00,WUHU21636XXSP,2013-04-29 04:30:00,
2013-04-29 06:35:00,49.6,45.3,30.03,WNW,293,0.0,0.0,85,0.00,,,0.00,WUHU21636XXSP,2013-04-29 04:35:00,
2013-04-29 06:40:00,49.6,45.3,30.04,WNW,293,0.0,0.0,85,0.00,,,0.00,WUHU21636XXSP,2013-04-29 04:40:00,
2013-04-29 06:45:00,49.6,45.3,30.03,WNW,293,0.0,0.0,85,0.00,,,0.00,WUHU21636XXSP,2013-04-29 04:45:00,
2013-04-29 06:50:00,49.6,45.3,30.03,WNW,293,0.0,0.0,85,0.00,,,0.00,WUHU21636XXSP,2013-04-29 04:50:00,
2013-04-29 06:55:00,49.6,45.3,30.03,WNW,293,0.0,0.0,85,0.00,,,0.00,WUHU21636XXSP,2013-04-29 04:55:00,
2013-04-29 07:00:00,49.6,45.3,30.03,WNW,293,0.0,0.0,85,0.00,,,0.00,WUHU21636XXSP,2013-04-29 05:00:00,
2013-04-29 07:05:00,49.6,45.3,30.03,WNW,293,0.0,0.0,85,0.00,,,0.00,WUHU21636XXSP,2013-04-29 05:05:00,
2013-04-29 07:10:00,49.6,45.6,30.03,WNW,293,0.0,0.0,86,0.00,,,0.00,WUHU21636XXSP,2013-04-29 05:10:00,
2013-04-29 07:15:00,49.6,45.6,30.03,WNW,293,0.0,0.0,86,0.00,,,0.00,WUHU21636XXSP,2013-04-29 05:15:00,
2013-04-29 07:20:00,49.6,45.6,30.02,WNW,293,0.0,0.0,86,0.00,,,0.00,WUHU21636XXSP,2013-04-29 05:20:00,
2013-04-29 07:25:00,49.6,45.6,30.03,WNW,293,0.0,0.0,86,0.00,,,0.00,WUHU21636XXSP,2013-04-29 05:25:00,
2013-04-29 07:30:00,49.6,45.6,30.03,WNW,293,0.0,0.0,86,0.00,,,0.00,WUHU21636XXSP,2013-04-29 05:30:00,
2013-04-29 07:35:00,49.6,45.6,30.04,WNW,293,0.0,0.0,86,0.00,,,0.00,WUHU21636XXSP,2013-04-29 05:35:00,
2013-04-29 07:40:00,49.6,45.6,30.03,WNW,293,0.0,0.0,86,0.00,,,0.00,WUHU21636XXSP,2013-04-29 05:40:00,
2013-04-29 07:45:00,49.8,45.8,30.04,WNW,293,0.0,0.0,86,0.00,,,0.00,WUHU21636XXSP,2013-04-29 05:45:00,
2013-04-29 07:50:00,49.8,45.8,30.04,WNW,293,0.0,0.0,86,0.00,,,0.00,WUHU21636XXSP,2013-04-29 05:50:00,
2013-04-29 07:55:00,50.0,46.0,30.04,WNW,293,0.0,0.0,86,0.00,,,0.00,WUHU21636XXSP,2013-04-29 05:55:00,
2013-04-29 08:00:00,50.0,46.0,30.03,WNW,293,0.0,0.0,86,0.00,,,0.00,WUHU21636XXSP,2013-04-29 06:00:00,
2013-04-29 08:05:00,50.0,46.0,30.04,WNW,293,0.0,0.0,86,0.00,,,0.00,WUHU21636XXSP,2013-04-29 06:05:00,
2013-04-29 08:10:00,50.2,46.2,30.03,WNW,293,0.0,0.0,86,0.00,,,0.00,WUHU21636XXSP,2013-04-29 06:10:00,
2013-04-29 08:15:00,50.2,46.2,30.04,WNW,293,0.0,0.0,86,0.00,,,0.00,WUHU21636XXSP,2013-04-29 06:15:00,
2013-04-29 08:20:00,50.4,46.1,30.04,SSE,158,0.0,0.0,85,0.00,,,0.00,WUHU21636XXSP,2013-04-29 06:20:00,
2013-04-29 08:25:00,50.5,46.2,30.05,WSW,248,0.0,0.0,85,0.00,,,0.00,WUHU21636XXSP,2013-04-29 06:25:00,
2013-04-29 08:30:00,50.5,46.2,30.05,WSW,248,0.0,0.0,85,0.00,,,0.00,WUHU21636XXSP,2013-04-29 06:30:00,
2013-04-29 08:35:00,50.5,46.2,30.04,WNW,293,0.0,0.0,85,0.00,,,0.00,WUHU21636XXSP,2013-04-29 06:35:00,
2013-04-29 08:40:00,50.5,46.2,30.05,West,270,0.0,0.0,85,0.00,,,0.00,WUHU21636XXSP,2013-04-29 06:40:00,
2013-04-29 08:45:00,50.7,46.3,30.04,West,270,0.0,0.0,85,0.00,,,0.00,WUHU21636XXSP,2013-04-29 06:45:00,
2013-04-29 08:50:00,50.7,46.3,30.04,West,270,0.0,0.0,85,0.00,,,0.00,WUHU21636XXSP,2013-04-29 06:50:00,
2013-04-29 08:55:00,51.1,46.7,30.03,WNW,293,0.0,0.0,85,0.00,,,0.00,WUHU21636XXSP,2013-04-29 06:55:00,
2013-04-29 09:00:00,51.1,46.7,30.03,WNW,293,0.0,0.0,85,0.00,,,0.00,WUHU21636XXSP,2013-04-29 07:00:00,
2013-04-29 09:05:00,51.4,47.0,30.04,WNW,293,0.0,0.0,85,0.00,,,0.00,WUHU21636XXSP,2013-04-29 07:05:00,
2013-04-29 09:10:00,51.4,47.0,30.04,WNW,293,0.0,0.0,85,0.00,,,0.00,WUHU21636XXSP,2013-04-29 07:10:00,
2013-04-29 09:15:00,51.6,47.2,30.04,WNW,293,0.0,0.0,85,0.00,,,0.00,WUHU21636XXSP,2013-04-29 07:15:00,
2013-04-29 09:20:00,51.6,46.9,30.04,WNW,293,0.4,0.4,84,0.00,,,0.00,WUHU21636XXSP,2013-04-29 07:20:00,
2013-04-29 09:25:00,51.6,46.9,30.04,WNW,293,0.0,0.4,84,0.00,,,0.00,WUHU21636XXSP,2013-04-29 07:25:00,
2013-04-29 09:30:00,51.6,46.9,30.04,WNW,293,0.0,0.4,84,0.00,,,0.00,WUHU21636XXSP,2013-04-29 07:30:00,
2013-04-29 09:35:00,52.0,47.3,30.04,WNW,293,1.3,1.3,84,0.00,,,0.00,WUHU21636XXSP,2013-04-29 07:35:00,
2013-04-29 09:40:00,52.2,47.2,30.04,WNW,293,0.0,1.3,83,0.00,,,0.00,WUHU21636XXSP,2013-04-29 07:40:00,
2013-04-29 09:45:00,52.2,47.2,30.04,WNW,293,0.0,1.3,83,0.00,,,0.00,WUHU21636XXSP,2013-04-29 07:45:00,
2013-04-29 09:50:00,52.3,47.3,30.04,WNW,293,0.0,0.0,83,0.00,,,0.00,WUHU21636XXSP,2013-04-29 07:50:00,
2013-04-29 09:55:00,52.5,47.5,30.04,WNW,293,0.0,0.0,83,0.00,,,0.00,WUHU21636XXSP,2013-04-29 07:55:00,
2013-04-29 10:00:00,52.3,47.3,30.05,WNW,293,0.0,0.0,83,0.00,,,0.00,WUHU21636XXSP,2013-04-29 08:00:00,
2013-04-29 10:05:00,52.3,47.3,30.04,West,270,0.0,0.0,83,0.00,,,0.00,WUHU21636XXSP,2013-04-29 08:05:00,
2013-04-29 10:10:00,52.5,47.5,30.05,WNW,293,0.0,0.0,83,0.00,,,0.00,WUHU21636XXSP,2013-04-29 08:10:00,
2013-04-29 10:15:00,52.5,47.2,30.05,WNW,293,0.9,0.9,82,0.00,,,0.00,WUHU21636XXSP,2013-04-29 08:15:00,
2013-04-29 10:20:00,52.5,47.2,30.04,WNW,293,0.0,0.9,82,0.00,,,0.00,WUHU21636XXSP,2013-04-29 08:20:00,
2013-04-29 10:25:00,52.9,47.6,30.05,WNW,293,0.0,0.9,82,0.00,,,0.00,WUHU21636XXSP,2013-04-29 08:25:00,
2013-04-29 10:30:00,53.1,47.5,30.06,WNW,293,0.0,0.0,81,0.00,,,0.00,WUHU21636XXSP,2013-04-29 08:30:00,
2013-04-29 10:35:00,53.2,47.6,30.06,NW,315,2.0,2.0,81,0.00,,,0.00,WUHU21636XXSP,2013-04-29 08:35:00,
2013-04-29 10:40:00,53.2,47.6,30.06,WNW,293,2.0,2.0,81,0.00,,,0.00,WUHU21636XXSP,2013-04-29 08:40:00,
2013-04-29 10:45:00,53.2,47.2,30.06,WNW,293,1.1,2.0,80,0.00,,,0.00,WUHU21636XXSP,2013-04-29 08:45:00,
2013-04-29 10:50:00,53.2,47.6,30.06,WNW,293,0.4,2.0,81,0.00,,,0.00,WUHU21636XXSP,2013-04-29 08:50:00,
2013-04-29 10:55:00,53.4,47.4,30.06,WNW,293,0.0,1.1,80,0.00,,,0.00,WUHU21636XXSP,2013-04-29 08:55:00,
2013-04-29 11:00:00,53.8,47.8,30.07,SW,225,0.0,0.4,80,0.00,,,0.00,WUHU21636XXSP,2013-04-29 09:00:00,
2013-04-29 11:05:00,54.1,47.8,30.07,WNW,293,0.0,0.0,79,0.00,,,0.00,WUHU21636XXSP,2013-04-29 09:05:00,
2013-04-29 11:10:00,54.7,48.4,30.07,WNW,293,2.2,2.2,79,0.00,,,0.00,WUHU21636XXSP,2013-04-29 09:10:00,
2013-04-29 11:15:00,54.5,48.2,30.07,WNW,293,0.0,2.2,79,0.00,,,0.00,WUHU21636XXSP,2013-04-29 09:15:00,
2013-04-29 11:20:00,54.7,48.4,30.07,WNW,293,0.9,2.2,79,0.00,,,0.00,WUHU21636XXSP,2013-04-29 09:20:00,
2013-04-29 11:25:00,54.7,48.4,30.07,WNW,293,0.9,0.9,79,0.00,,,0.00,WUHU21636XXSP,2013-04-29 09:25:00,
2013-04-29 11:30:00,56.8,50.1,30.08,ENE,69,0.0,1.0,78,0.00,CLR,,0.00,WeatherDisplay:10.37,2013-04-29 09:30:00,
2013-04-29 11:40:00,56.8,50.1,30.08,WNW,303,0.0,1.0,78,0.00,CLR,,0.00,WeatherDisplay:10.37,2013-04-29 09:40:00,
2013-04-29 11:41:00,54.9,48.6,30.09,WNW,293,0.0,0.0,79,0.00,,,0.00,WUHU21636XXSP,2013-04-29 09:41:00,
2013-04-29 11:46:00,54.7,48.2,30.08,NW,315,0.0,2.0,78,0.00,,,0.00,WUHU21636XXSP,2013-04-29 09:46:00,
2013-04-29 11:50:00,54.7,48.7,30.08,WNW,293,1.3,1.3,80,0.00,,,0.00,WUHU21636XXSP,2013-04-29 09:50:00,
2013-04-29 11:55:00,54.7,48.7,30.08,WNW,293,0.0,1.3,80,0.00,,,0.00,WUHU21636XXSP,2013-04-29 09:55:00,
2013-04-29 11:58:00,54.7,48.7,30.08,WNW,293,0.0,1.8,80,0.00,,,0.00,WUHU21636XXSP,2013-04-29 09:58:00,
2013-04-29 12:00:00,55.0,49.3,30.08,WNW,293,0.7,1.3,81,0.00,,,0.00,WUHU21636XXSP,2013-04-29 10:00:00,
2013-04-29 12:05:00,54.7,48.7,30.08,WNW,293,0.0,0.7,80,0.00,,,0.00,WUHU21636XXSP,2013-04-29 10:05:00,
2013-04-29 12:10:00,54.7,48.7,30.08,SSE,158,0.0,0.7,80,0.00,,,0.00,WUHU21636XXSP,2013-04-29 10:10:00,
2013-04-29 12:15:00,55.0,49.3,30.08,WNW,293,0.0,0.0,81,0.00,,,0.00,WUHU21636XXSP,2013-04-29 10:15:00,
2013-04-29 12:20:00,55.2,49.5,30.08,WNW,293,0.0,0.0,81,0.00,,,0.00,WUHU21636XXSP,2013-04-29 10:20:00,
2013-04-29 12:25:00,55.2,48.9,30.08,West,270,0.0,0.0,79,0.00,,,0.00,WUHU21636XXSP,2013-04-29 10:25:00,
2013-04-29 12:30:00,55.6,48.9,30.08,WNW,293,0.4,0.4,78,0.00,,,0.00,WUHU21636XXSP,2013-04-29 10:30:00,
2013-04-29 12:35:00,55.6,48.9,30.08,WNW,293,1.8,1.8,78,0.00,,,0.00,WUHU21636XXSP,2013-04-29 10:35:00,
2013-04-29 12:40:00,55.8,49.1,30.08,WNW,293,0.0,1.8,78,0.00,,,0.00,WUHU21636XXSP,2013-04-29 10:40:00,
2013-04-29 12:45:00,56.1,49.1,30.09,WNW,293,0.0,1.8,77,0.00,,,0.00,WUHU21636XXSP,2013-04-29 10:45:00,
2013-04-29 12:50:00,56.5,49.1,30.09,SE,135,1.6,1.6,76,0.00,,,0.00,WUHU21636XXSP,2013-04-29 10:50:00,
2013-04-29 12:55:00,56.7,49.3,30.09,WNW,293,0.0,1.6,76,0.00,,,0.00,WUHU21636XXSP,2013-04-29 10:55:00,
2013-04-29 13:00:00,56.5,49.1,30.09,SE,135,0.0,1.6,76,0.00,,,0.00,WUHU21636XXSP,2013-04-29 11:00:00,
2013-04-29 13:05:00,56.5,49.1,30.09,SSW,203,0.0,0.0,76,0.00,,,0.00,WUHU21636XXSP,2013-04-29 11:05:00,
2013-04-29 13:10:00,56.1,49.1,30.08,SE,135,0.4,0.4,77,0.00,,,0.00,WUHU21636XXSP,2013-04-29 11:10:00,
2013-04-29 13:15:00,56.1,49.1,30.08,ESE,113,1.8,1.8,77,0.00,,,0.00,WUHU21636XXSP,2013-04-29 11:15:00,
2013-04-29 13:20:00,56.1,49.4,30.08,SE,135,1.3,1.8,78,0.00,,,0.00,WUHU21636XXSP,2013-04-29 11:20:00,
2013-04-29 13:25:00,55.9,48.9,30.08,SE,135,1.3,1.8,77,0.00,,,0.00,WUHU21636XXSP,2013-04-29 11:25:00,
2013-04-29 13:30:00,56.1,49.7,30.08,SE,135,0.4,1.3,79,0.00,,,0.00,WUHU21636XXSP,2013-04-29 11:30:00,
2013-04-29 13:35:00,55.9,49.2,30.08,SE,135,0.0,1.3,78,0.00,,,0.00,WUHU21636XXSP,2013-04-29 11:35:00,
2013-04-29 13:40:00,55.9,49.2,30.08,WNW,293,0.0,0.4,78,0.00,,,0.00,WUHU21636XXSP,2013-04-29 11:40:00,
2013-04-29 13:45:00,55.9,49.5,30.09,SE,135,1.3,1.3,79,0.00,,,0.00,WUHU21636XXSP,2013-04-29 11:45:00,
2013-04-29 13:50:00,55.9,49.2,30.09,SE,135,2.0,2.0,78,0.00,,,0.00,WUHU21636XXSP,2013-04-29 11:50:00,
2013-04-29 13:55:00,55.9,49.2,30.09,ESE,113,3.1,3.1,78,0.00,,,0.00,WUHU21636XXSP,2013-04-29 11:55:00,
2013-04-29 14:00:00,56.1,49.7,30.09,SE,135,0.9,3.1,79,0.00,,,0.00,WUHU21636XXSP,2013-04-29 12:00:00,
2013-04-29 14:05:00,55.9,49.2,30.09,ESE,113,1.1,3.1,78,0.00,,,0.00,WUHU21636XXSP,2013-04-29 12:05:00,
2013-04-29 14:10:00,56.3,49.6,30.09,SE,135,0.0,1.1,78,0.00,,,0.00,WUHU21636XXSP,2013-04-29 12:10:00,
2013-04-29 14:15:00,56.3,49.6,30.09,SE,135,0.0,1.1,78,0.00,,,0.00,WUHU21636XXSP,2013-04-29 12:15:00,
2013-04-29 14:20:00,56.5,49.8,30.09,ESE,113,0.4,0.4,78,0.00,,,0.00,WUHU21636XXSP,2013-04-29 12:20:00,
2013-04-29 14:25:00,56.8,50.1,30.09,SE,135,1.6,1.6,78,0.00,,,0.00,WUHU21636XXSP,2013-04-29 12:25:00,
2013-04-29 14:30:00,56.5,49.1,30.09,SE,135,0.4,1.6,76,0.00,,,0.00,WUHU21636XXSP,2013-04-29 12:30:00,
2013-04-29 14:35:00,56.7,49.6,30.09,ESE,113,0.0,1.6,77,0.00,,,0.00,WUHU21636XXSP,2013-04-29 12:35:00,
2013-04-29 14:40:00,56.8,49.7,30.09,ESE,113,2.9,2.9,77,0.00,,,0.00,WUHU21636XXSP,2013-04-29 12:40:00,
2013-04-29 14:45:00,56.7,50.0,30.09,ESE,113,1.6,2.9,78,0.00,,,0.00,WUHU21636XXSP,2013-04-29 12:45:00,
2013-04-29 14:50:00,56.7,50.3,30.09,North,0,1.1,2.9,79,0.00,,,0.00,WUHU21636XXSP,2013-04-29 12:50:00,
2013-04-29 14:55:00,56.8,50.1,30.09,SE,135,0.0,1.6,78,0.00,,,0.00,WUHU21636XXSP,2013-04-29 12:55:00,
2013-04-29 15:00:00,56.8,50.1,30.09,WNW,293,1.3,1.3,78,0.00,,,0.00,WUHU21636XXSP,2013-04-29 13:00:00,
2013-04-29 15:05:00,56.8,50.1,30.09,NW,315,0.0,1.3,78,0.00,,,0.00,WUHU21636XXSP,2013-04-29 13:05:00,
2013-04-29 15:10:00,57.0,50.3,30.10,SE,135,1.6,1.6,78,0.00,,,0.00,WUHU21636XXSP,2013-04-29 13:10:00,
2013-04-29 15:15:00,57.2,50.5,30.10,SE,135,0.4,1.6,78,0.00,,,0.00,WUHU21636XXSP,2013-04-29 13:15:00,
2013-04-29 15:20:00,57.6,50.5,30.10,SE,135,4.0,4.0,77,0.00,,,0.00,WUHU21636XXSP,2013-04-29 13:20:00,
2013-04-29 15:25:00,57.7,49.9,30.10,SE,135,0.0,4.0,75,0.00,,,0.00,WUHU21636XXSP,2013-04-29 13:25:00,
2013-04-29 15:30:00,57.9,49.8,30.10,NW,315,0.0,4.0,74,0.00,,,0.00,WUHU21636XXSP,2013-04-29 13:30:00,
2013-04-29 15:35:00,57.9,49.8,30.10,SE,135,2.0,2.0,74,0.00,,,0.00,WUHU21636XXSP,2013-04-29 13:35:00,
2013-04-29 15:40:00,57.9,49.8,30.10,ESE,113,0.0,2.0,74,0.00,,,0.00,WUHU21636XXSP,2013-04-29 13:40:00,
2013-04-29 15:45:00,57.9,49.8,30.10,WNW,293,2.7,2.7,74,0.00,,,0.00,WUHU21636XXSP,2013-04-29 13:45:00,
2013-04-29 15:50:00,57.9,49.4,30.10,SE,135,3.4,3.4,73,0.00,,,0.00,WUHU21636XXSP,2013-04-29 13:50:00,
2013-04-29 15:55:00,57.7,49.2,30.10,WNW,293,1.1,3.4,73,0.00,,,0.00,WUHU21636XXSP,2013-04-29 13:55:00,
2013-04-29 16:00:00,57.7,49.6,30.10,WNW,293,2.9,3.4,74,0.00,,,0.00,WUHU21636XXSP,2013-04-29 14:00:00,
2013-04-29 16:05:00,57.9,49.8,30.10,WNW,293,0.9,2.9,74,0.00,,,0.00,WUHU21636XXSP,2013-04-29 14:05:00,
2013-04-29 16:10:00,57.7,49.6,30.10,SE,135,0.0,2.9,74,0.00,,,0.00,WUHU21636XXSP,2013-04-29 14:10:00,
2013-04-29 16:15:00,57.7,49.6,30.10,WNW,293,1.6,1.6,74,0.00,,,0.00,WUHU21636XXSP,2013-04-29 14:15:00,
2013-04-29 16:20:00,57.7,49.6,30.10,SE,135,0.9,1.6,74,0.00,,,0.00,WUHU21636XXSP,2013-04-29 14:20:00,
2013-04-29 16:25:00,57.7,49.2,30.10,SE,135,0.0,1.6,73,0.00,,,0.00,WUHU21636XXSP,2013-04-29 14:25:00,
2013-04-29 16:30:00,57.7,49.2,30.10,WNW,293,1.3,1.3,73,0.00,,,0.00,WUHU21636XXSP,2013-04-29 14:30:00,
2013-04-29 16:35:00,57.9,49.4,30.10,SE,135,0.0,1.3,73,0.00,,,0.00,WUHU21636XXSP,2013-04-29 14:35:00,
2013-04-29 16:40:00,57.9,49.4,30.10,NW,315,1.3,1.3,73,0.00,,,0.00,WUHU21636XXSP,2013-04-29 14:40:00,
2013-04-29 16:45:00,57.7,48.9,30.10,WNW,293,0.0,1.3,72,0.00,,,0.00,WUHU21636XXSP,2013-04-29 14:45:00,
2013-04-29 16:50:00,57.9,49.0,30.10,NW,315,0.0,1.3,72,0.00,,,0.00,WUHU21636XXSP,2013-04-29 14:50:00,
2013-04-29 16:55:00,58.1,48.9,30.09,East,90,0.0,0.0,71,0.00,,,0.00,WUHU21636XXSP,2013-04-29 14:55:00,
2013-04-29 17:00:00,58.3,49.1,30.09,WNW,293,0.0,0.0,71,0.00,,,0.00,WUHU21636XXSP,2013-04-29 15:00:00,
2013-04-29 17:05:00,58.3,49.4,30.10,ESE,113,1.3,1.3,72,0.00,,,0.00,WUHU21636XXSP,2013-04-29 15:05:00,
2013-04-29 17:10:00,58.3,49.1,30.10,West,270,0.0,1.3,71,0.00,,,0.00,WUHU21636XXSP,2013-04-29 15:10:00,
2013-04-29 17:15:00,58.3,49.4,30.10,SW,225,0.7,1.3,72,0.00,,,0.00,WUHU21636XXSP,2013-04-29 15:15:00,
2013-04-29 17:20:00,58.3,49.1,30.10,WNW,293,4.7,4.7,71,0.00,,,0.00,WUHU21636XXSP,2013-04-29 15:20:00,
2013-04-29 17:25:00,58.1,48.9,30.10,SE,135,0.0,4.7,71,0.00,,,0.00,WUHU21636XXSP,2013-04-29 15:25:00,
2013-04-29 17:30:00,58.3,49.4,30.10,NW,315,0.7,4.7,72,0.00,,,0.00,WUHU21636XXSP,2013-04-29 15:30:00,
2013-04-29 17:35:00,58.1,48.9,30.11,ESE,113,0.7,0.7,71,0.00,,,0.00,WUHU21636XXSP,2013-04-29 15:35:00,
2013-04-29 17:40:00,57.9,48.7,30.11,ESE,113,1.8,1.8,71,0.00,,,0.00,WUHU21636XXSP,2013-04-29 15:40:00,
2013-04-29 17:45:00,57.9,49.0,30.11,ESE,113,4.5,4.5,72,0.00,,,0.00,WUHU21636XXSP,2013-04-29 15:45:00,
2013-04-29 17:50:00,57.7,48.9,30.11,WNW,293,0.0,4.5,72,0.00,,,0.00,WUHU21636XXSP,2013-04-29 15:50:00,
2013-04-29 17:55:00,57.7,48.9,30.11,SE,135,0.4,4.5,72,0.00,,,0.00,WUHU21636XXSP,2013-04-29 15:55:00,
2013-04-29 18:00:00,57.6,48.8,30.11,NNW,338,0.4,0.4,72,0.00,,,0.00,WUHU21636XXSP,2013-04-29 16:00:00,
2013-04-29 18:05:00,57.7,48.9,30.11,SE,135,0.0,0.4,72,0.00,,,0.00,WUHU21636XXSP,2013-04-29 16:05:00,
2013-04-29 18:10:00,57.7,49.2,30.11,ESE,113,0.0,0.4,73,0.00,,,0.00,WUHU21636XXSP,2013-04-29 16:10:00,
2013-04-29 18:15:00,57.6,48.8,30.11,NW,315,0.7,0.7,72,0.00,,,0.00,WUHU21636XXSP,2013-04-29 16:15:00,
2013-04-29 18:20:00,57.6,49.1,30.11,ESE,113,0.0,0.7,73,0.00,,,0.00,WUHU21636XXSP,2013-04-29 16:20:00,
2013-04-29 18:25:00,57.4,48.6,30.12,East,90,2.0,2.0,72,0.00,,,0.00,WUHU21636XXSP,2013-04-29 16:25:00,
2013-04-29 18:30:00,57.4,48.9,30.12,NNE,23,0.0,2.0,73,0.00,,,0.00,WUHU21636XXSP,2013-04-29 16:30:00,
2013-04-29 18:35:00,57.4,48.9,30.12,ESE,113,1.3,2.0,73,0.00,,,0.00,WUHU21636XXSP,2013-04-29 16:35:00,
2013-04-29 18:40:00,57.4,48.9,30.12,NW,315,0.0,1.3,73,0.00,,,0.00,WUHU21636XXSP,2013-04-29 16:40:00,
2013-04-29 18:45:00,57.4,48.9,30.11,ESE,113,1.6,1.6,73,0.00,,,0.00,WUHU21636XXSP,2013-04-29 16:45:00,
2013-04-29 18:50:00,57.2,49.1,30.12,ESE,113,2.0,2.0,74,0.00,,,0.00,WUHU21636XXSP,2013-04-29 16:50:00,
2013-04-29 18:55:00,57.2,49.1,30.11,WNW,293,0.0,2.0,74,0.00,,,0.00,WUHU21636XXSP,2013-04-29 16:55:00,
2013-04-29 19:00:00,57.2,49.1,30.11,SE,135,0.0,2.0,74,0.00,,,0.00,WUHU21636XXSP,2013-04-29 17:00:00,
2013-04-29 19:05:00,57.2,49.1,30.12,NW,315,0.0,0.0,74,0.00,,,0.00,WUHU21636XXSP,2013-04-29 17:05:00,
2013-04-29 19:10:00,57.2,49.1,30.12,SE,135,0.0,0.0,74,0.00,,,0.00,WUHU21636XXSP,2013-04-29 17:10:00,
2013-04-29 19:15:00,57.2,49.1,30.12,WNW,293,1.3,1.3,74,0.00,,,0.00,WUHU21636XXSP,2013-04-29 17:15:00,
2013-04-29 19:20:00,57.0,48.9,30.12,ESE,113,3.4,3.4,74,0.00,,,0.00,WUHU21636XXSP,2013-04-29 17:20:00,
2013-04-29 19:25:00,57.0,48.9,30.12,NW,315,0.0,3.4,74,0.00,,,0.00,WUHU21636XXSP,2013-04-29 17:25:00,
2013-04-29 19:30:00,57.0,48.9,30.12,WNW,293,0.7,3.4,74,0.00,,,0.00,WUHU21636XXSP,2013-04-29 17:30:00,
2013-04-29 19:35:00,57.0,48.9,30.12,ESE,113,0.0,0.7,74,0.00,,,0.00,WUHU21636XXSP,2013-04-29 17:35:00,
2013-04-29 19:40:00,57.0,48.9,30.12,SE,135,0.0,0.7,74,0.00,,,0.00,WUHU21636XXSP,2013-04-29 17:40:00,
2013-04-29 19:45:00,56.8,48.7,30.12,SE,135,1.3,1.3,74,0.00,,,0.00,WUHU21636XXSP,2013-04-29 17:45:00,
2013-04-29 19:50:00,56.8,48.7,30.13,SE,135,0.0,1.3,74,0.00,,,0.00,WUHU21636XXSP,2013-04-29 17:50:00,
2013-04-29 19:55:00,56.7,48.6,30.13,ESE,113,0.0,1.3,74,0.00,,,0.00,WUHU21636XXSP,2013-04-29 17:55:00,
2013-04-29 20:00:00,56.5,48.4,30.13,ESE,113,0.0,0.0,74,0.00,,,0.00,WUHU21636XXSP,2013-04-29 18:00:00,
2013-04-29 20:05:00,56.5,48.4,30.13,North,0,0.0,0.0,74,0.00,,,0.00,WUHU21636XXSP,2013-04-29 18:05:00,
2013-04-29 20:10:00,56.3,48.2,30.13,ESE,113,1.3,1.3,74,0.00,,,0.00,WUHU21636XXSP,2013-04-29 18:10:00,
2013-04-29 20:15:00,56.1,48.4,30.14,SE,135,0.0,1.3,75,0.00,,,0.00,WUHU21636XXSP,2013-04-29 18:15:00,
2013-04-29 20:20:00,56.1,48.4,30.13,SE,135,0.0,1.3,75,0.00,,,0.00,WUHU21636XXSP,2013-04-29 18:20:00,
2013-04-29 20:25:00,55.9,48.2,30.14,NW,315,2.0,2.0,75,0.00,,,0.00,WUHU21636XXSP,2013-04-29 18:25:00,
2013-04-29 20:30:00,55.9,48.2,30.14,WNW,293,0.0,2.0,75,0.00,,,0.00,WUHU21636XXSP,2013-04-29 18:30:00,
2013-04-29 20:35:00,55.6,47.9,30.14,SE,135,0.0,2.0,75,0.00,,,0.00,WUHU21636XXSP,2013-04-29 18:35:00,
2013-04-29 20:40:00,55.6,48.2,30.14,SE,135,0.0,0.0,76,0.00,,,0.00,WUHU21636XXSP,2013-04-29 18:40:00,
2013-04-29 20:45:00,55.6,48.2,30.14,SE,135,0.0,0.0,76,0.00,,,0.00,WUHU21636XXSP,2013-04-29 18:45:00,
2013-04-29 20:50:00,55.2,47.8,30.15,WNW,293,0.0,0.0,76,0.00,,,0.00,WUHU21636XXSP,2013-04-29 18:50:00,
2013-04-29 20:55:00,55.2,48.2,30.16,NW,315,0.0,0.0,77,0.00,,,0.00,WUHU21636XXSP,2013-04-29 18:55:00,
2013-04-29 21:00:00,55.0,48.0,30.16,SE,135,1.1,1.1,77,0.00,,,0.00,WUHU21636XXSP,2013-04-29 19:00:00,
2013-04-29 21:05:00,55.0,48.0,30.16,WNW,293,0.4,1.1,77,0.00,,,0.00,WUHU21636XXSP,2013-04-29 19:05:00,
2013-04-29 21:10:00,54.9,47.9,30.17,ESE,113,4.7,4.7,77,0.00,,,0.00,WUHU21636XXSP,2013-04-29 19:10:00,
2013-04-29 21:15:00,54.7,47.7,30.17,SE,135,0.9,4.7,77,0.00,,,0.00,WUHU21636XXSP,2013-04-29 19:15:00,
2013-04-29 21:20:00,54.5,47.5,30.17,SE,135,1.1,4.7,77,0.00,,,0.00,WUHU21636XXSP,2013-04-29 19:20:00,
2013-04-29 21:25:00,54.3,47.3,30.17,ESE,113,1.3,1.3,77,0.00,,,0.00,WUHU21636XXSP,2013-04-29 19:25:00,
2013-04-29 21:30:00,54.3,47.6,30.17,SE,135,0.0,1.3,78,0.00,,,0.00,WUHU21636XXSP,2013-04-29 19:30:00,
2013-04-29 21:35:00,54.1,47.5,30.16,NW,315,0.9,1.3,78,0.00,,,0.00,WUHU21636XXSP,2013-04-29 19:35:00,
2013-04-29 21:40:00,54.0,47.4,30.17,SE,135,1.3,1.3,78,0.00,,,0.00,WUHU21636XXSP,2013-04-29 19:40:00,
2013-04-29 21:45:00,54.0,47.4,30.18,SE,135,0.0,1.3,78,0.00,,,0.00,WUHU21636XXSP,2013-04-29 19:45:00,
2013-04-29 21:50:00,53.8,47.2,30.18,SE,135,0.0,1.3,78,0.00,,,0.00,WUHU21636XXSP,2013-04-29 19:50:00,
2013-04-29 21:55:00,53.8,47.5,30.18,SE,135,0.0,0.0,79,0.00,,,0.00,WUHU21636XXSP,2013-04-29 19:55:00,
2013-04-29 22:00:00,53.8,47.5,30.17,SE,135,0.0,0.0,79,0.00,,,0.00,WUHU21636XXSP,2013-04-29 20:00:00,
2013-04-29 22:05:00,53.8,47.5,30.17,SE,135,0.0,0.0,79,0.00,,,0.00,WUHU21636XXSP,2013-04-29 20:05:00,
2013-04-29 22:10:00,53.6,47.3,30.17,SE,135,0.0,0.0,79,0.00,,,0.00,WUHU21636XXSP,2013-04-29 20:10:00,
2013-04-29 22:15:00,53.4,47.1,30.17,SE,135,0.4,0.4,79,0.00,,,0.00,WUHU21636XXSP,2013-04-29 20:15:00,
2013-04-29 22:20:00,53.4,47.4,30.17,SE,135,0.0,0.4,80,0.00,,,0.00,WUHU21636XXSP,2013-04-29 20:20:00,
2013-04-29 22:25:00,53.2,47.2,30.17,WNW,293,0.0,0.4,80,0.00,,,0.00,WUHU21636XXSP,2013-04-29 20:25:00,
2013-04-29 22:30:00,53.2,47.2,30.18,WNW,293,2.2,2.2,80,0.00,,,0.00,WUHU21636XXSP,2013-04-29 20:30:00,
2013-04-29 22:35:00,53.2,47.2,30.17,NW,315,0.0,2.2,80,0.00,,,0.00,WUHU21636XXSP,2013-04-29 20:35:00,
2013-04-29 22:40:00,53.2,47.2,30.17,NW,315,2.2,2.2,80,0.00,,,0.00,WUHU21636XXSP,2013-04-29 20:40:00,
2013-04-29 22:45:00,53.2,47.2,30.17,NW,315,0.0,2.2,80,0.00,,,0.00,WUHU21636XXSP,2013-04-29 20:45:00,
2013-04-29 22:50:00,53.2,47.2,30.17,WNW,293,0.0,2.2,80,0.00,,,0.00,WUHU21636XXSP,2013-04-29 20:50:00,
2013-04-29 22:55:00,53.2,47.2,30.18,SE,135,0.0,0.0,80,0.00,,,0.00,WUHU21636XXSP,2013-04-29 20:55:00,
2013-04-29 23:00:00,53.2,47.2,30.18,NW,315,0.0,0.0,80,0.00,,,0.00,WUHU21636XXSP,2013-04-29 21:00:00,
2013-04-29 23:05:00,53.2,47.2,30.18,WNW,293,0.4,0.4,80,0.00,,,0.00,WUHU21636XXSP,2013-04-29 21:05:00,
2013-04-29 23:10:00,53.1,47.1,30.18,WNW,293,1.1,1.1,80,0.00,,,0.00,WUHU21636XXSP,2013-04-29 21:10:00,
2013-04-29 23:15:00,52.9,46.9,30.19,WNW,293,0.0,1.1,80,0.00,,,0.00,WUHU21636XXSP,2013-04-29 21:15:00,
2013-04-29 23:20:00,52.9,46.9,30.18,WNW,293,0.0,1.1,80,0.00,,,0.00,WUHU21636XXSP,2013-04-29 21:20:00,
2013-04-29 23:25:00,52.9,46.9,30.18,NW,315,0.0,0.0,80,0.00,,,0.00,WUHU21636XXSP,2013-04-29 21:25:00,
2013-04-29 23:30:00,52.7,46.7,30.18,NW,315,1.1,1.1,80,0.00,,,0.00,WUHU21636XXSP,2013-04-29 21:30:00,
2013-04-29 23:35:00,52.7,47.1,30.18,WNW,293,1.8,1.8,81,0.00,,,0.00,WUHU21636XXSP,2013-04-29 21:35:00,
2013-04-29 23:40:00,52.7,47.1,30.18,WNW,293,1.3,1.8,81,0.00,,,0.00,WUHU21636XXSP,2013-04-29 21:40:00,
2013-04-29 23:45:00,52.5,46.9,30.18,WNW,293,0.9,1.8,81,0.00,,,0.00,WUHU21636XXSP,2013-04-29 21:45:00,
2013-04-29 23:50:00,52.5,46.9,30.19,WNW,293,0.0,1.3,81,0.00,,,0.00,WUHU21636XXSP,2013-04-29 21:50:00,
2013-04-29 23:55:00,52.5,46.9,30.19,WNW,293,0.4,0.9,81,0.00,,,0.00,WUHU21636XXSP,2013-04-29 21:55:00,